Main page
METAR-TAF:

METAR-TAF

Airports :

Goeree Le, Netherlands

Oil platform

latitude: 51-55-33N, longitude: 3-40-12E, elevation: 19 m

Current weather observation

The report was made 27 minutes ago, at 04:25 UTC
Wind 32 kt from the West with gusts up to 36 kt
Temperature 13°C
Humidity 82%
Pressure 1005 hPa
Visibility 10 km or more

METAR: EHSC 220425Z AUTO 27032G36KT 9999 ///////// 13/10 Q1005 W15/H21

Time: 06:52 (04:52 UTC)


TAF: missing

Weather observations and forecasts of more than 4000 airports (METAR and TAF reports).

The available stations are represented by yellow and red dots on the map.

Hover mouse over dot to see the name of the station.

Then click to see weather observations and forecasts.

To change the map : click on the green buttons with a black cross to zoom in, on the green button with a dash to zoom out, or on the green arrows for adjacent maps.


METAR-TAF: